Orbital Elements at Epoch 2459000.5 (2020-May-31.0) TDB
Reference: JPL 24 (heliocentric ecliptic J2000)
Element | Value | Uncertainty (1-sigma) | Units |
e | .198852163057385 | 4.0764e-08 | |
a | 2.387274431732998 | 9.8926e-09 | au |
q | 1.912559747171302 | 9.7845e-08 | au |
i | 3.458783251909682 | 4.57e-06 | deg |
node | 155.8501825305856 | 6.978e-05 | deg |
peri | 191.5460115615561 | 7.0506e-05 | deg |
M | 306.8120736807102 | 1.2284e-05 | deg |
tp | 2459199.550147880370 (2020-Dec-16.05014788) | 4.6615e-05 | TDB |
period | 1347.261647441682 3.69 | 8.3744e-06 2.293e-08 | d yr |
n | .2672086752291989 | 1.6609e-09 | deg/d |
Q | 2.861989116294694 | 1.186e-08 | au |
|
| | Orbit Determination Parameters
Additional Information
|